Showing default

VINASAT 1, 32767

Orbit data source: Space-Track

VINASAT 1, 32767 is a payload satellite owned by VNPT (VN) in GEO that was launched on Fri, 18 Apr 2008 UTC via an ARIANE 5ECA launch vehicle from the French Guiana (FRGUI). Payload-class satellites include a variety of spacecraft equipped with specific instruments for various scientific and technological missions. These include communications satellites like Starlink; space stations such as the ISS; scientific satellites like the Hubble; Earth observation satellites from companies like Planet Labs, Umbra, and HawkEye 360; GPS; miniature CubeSats for education and research; and military/defense satellites.

Not visible in the next 10 days
Identifier
32767, 2008-018A
Orbit
GEO
Country
Flag of VNVN / VTNM
Related business
Manufacturer
LMCSS
Mission
Operational Civil Communications
Bus & Motor
A2100, LEROS 1C
Mass
2,600 kg wet, ~1,200 kg dry
Launch date (UTC)
2008-04-18 (18 years ago)
Launch vehicle
ARIANE 5ECA
Launch site
French Guiana (FRGUI)
Object type
Payload
Rocket body
Debris
Shape & HBR
Box + 2 Pan, 13.0 m
Radar Cross Section
27.474 m², Large (>1 m²)

Expand to show TLE details & history
Last TLE update: 18 hours ago

TLE from 18 hours ago
0 VINASAT 1
1 32767U 08018A   26094.25600255  .00000000  00000-0  00000-0 0  9998
2 32767   0.0125 222.5319 0002622 190.1589   3.9918  1.00270224 65845
Epoch: 2026-04-04T06:08Z
TLE epoch observation values (Epoch: 2026-04-04T06:08:38.620Z)
Latitude
-0.01206°
Longitude
131.95354°
Altitude
35,775.484 km
Speed
3.076 km/s
True Right ascension
03h 46m 46s
True Declination
0° 00' 43"
Sunlit
Object was in daylight at epoch
Visualization orbit readout
Latitude
Unknown
Longitude
Unknown
Altitude
Unknown
Speed
Unknown
Apparent Right ascension
Unknown
Apparent Declination
Unknown
Sunlit
N/A
Visualization observer readout
Local Sidereal Time
06:08:24
Azimuth
Unknown
Elevation
Unknown
Doppler factor
Unknown
Orbital elements
Apogee altitude
35,799.159 km
Perigee altitude
35,777.047 km
Semi-major axis
42,166.24 km
Eccentricity
0.00026
Inclination
0.0125°
RAAN
222.5319°
Arg. of periapsis
190.1589°
True anomaly
3.99389°
Mean anomaly
3.9918°
Eccentric anomaly
3.99285°
Mean motion
0.25067 °/min
Orbital period
1,436.17 mins
BSTAR
0
Loading maneuver chart data...
Computing Atmospheric mass density...
Loading historical data...
Loading historical data...
Loading historical data...
Loading historical data...
Loading historical data...
Loading historical data...
Loading historical data...
Other satellites on launch #18 in the year 2008 (2008-04-18 UTC)

Documentation

Showing up to 5 results
|